Wind_Speed
14 3 7 11 11 13 12 8 13 12 16 12 16 12 13 18 16 8 17 17 16 19 21 22 19 25 19 16 18 11 10 10 16 20 23 27 30 30 40 32 32 33 32 36
4 8 13 15 16 15 15 12 11 9 6 4 2 8 8 7 6 11 24 27 28 24 22 13 15 17 18 15 13 14 16 14 16 17 23 27 28 27 26 30 35 39 39 41
9 12 16 15 13 14 11 9 4 5 10 7 5 4 4 5 7 18 21 31 32 31 26 22 18 15 14 14 11 7 6 11 13 18 20 23 25 25 26 28 31 29 31 42
8 12 15 15 11 6 5 8 4 7 8 4 2 5 6 5 11 11 23 26 26 33 27 26 28 21 18 17 11 8 7 7 8 10 14 20 23 22 27 31 29 31 34 39
13 9 8 8 6 7 7 9 8 8 6 6 9 2 6 7 7 15 17 28 27 29 30 23 20 21 19 17 13 9 8 10 7 8 10 15 20 25 24 24 25 31 35 36
12 20 7 7 8 5 7 5 5 5 1 2 4 4 6 10 9 8 7 32 35 33 23 20 22 23 17 12 9 9 7 3 2 4 7 10 14 19 24 30 31 33 35 36
8 13 13 14 5 8 7 3 3 5 4 5 8 6 14 9 12 16 21 16 22 26 29 27 24 19 12 8 4 3 4 5 7 9 12 15 17 19 21 24 27 32 39 44
3 7 4 5 3 7 8 4 5 7 5 5 7 6 8 6 7 24 22 33 36 32 28 23 18 15 13 9 4 4 8 10 14 18 21 21 20 22 22 22 24 29 30 33
5 11 9 13 10 6 6 6 6 1 2 1 4 6 5 8 8 9 13 24 28 24 19 16 14 13 9 5 4 5 6 7 10 15 17 16 14 17 19 20 22 26 29 34
4 4 7 2 7 7 6 5 5 3 1 5 4 6 1 8 11 14 14 19 18 19 15 12 11 8 5 5 7 11 9 10 8 8 8 12 15 16 16 23 25 27 31 32
2 5 5 6 3 4 5 3 4 6 7 5 1 3 6 6 7 6 10 15 11 14 14 8 7 8 5 4 4 4 5 7 9 10 9 10 15 15 18 25 29 32 31 29
1 2 3 6 8 9 9 9 4 3 8 3 4 9 8 8 9 12 13 17 13 12 11 6 7 6 4 8 11 8 5 4 9 13 16 17 14 14 18 23 29 31 34 30
6 2 3 6 6 7 4 4 4 3 2 9 8 4 3 6 7 9 7 10 9 12 16 12 6 3 6 9 12 19 22 18 12 11 13 17 19 21 21 24 28 29 32 34
5 2 3 4 8 12 8 7 5 4 3 4 8 10 6 2 3 3 10 11 11 12 15 15 12 8 8 14 19 21 23 21 22 22 22 25 26 28 31 32 31 34 34 34
4 4 5 8 12 17 18 18 14 13 13 9 9 10 15 7 11 16 18 16 16 14 11 7 9 14 20 19 23 23 22 23 24 25 24 20 20 23 27 31 32 33 34 35
4 3 5 8 14 17 21 17 16 18 15 19 17 19 13 8 8 4 4 3 9 6 10 19 21 19 11 10 8 9 14 19 22 21 23 27 28 29 31 33 35 35 35 37
4 2 3 4 9 12 8 14 15 14 8 7 11 4 8 5 7 6 7 8 8 12 5 7 7 14 17 19 20 23 25 26 25 26 29 31 31 28 28 29 29 32 34 36
3 2 2 3 6 5 5 6 8 2 13 12 9 9 7 10 14 9 8 18 17 17 16 16 17 18 20 22 24 25 25 28 32 35 37 39 39 39 40 38 45 44 37 35
9 4 2 2 2 9 11 3 4 3 5 7 8 5 7 10 18 3 17 17 18 20 21 22 23 25 28 30 32 32 34 37 37 36 36 34 35 34 37 39 43 50 48 45
9 9 4 2 4 3 0 4 14 5 2 7 8 6 5 9 1 5 24 21 20 19 20 22 24 27 30 33 33 32 33 34 32 32 32 32 32 34 35 39 45 47 48 47
4 4 8 5 4 6 8 5 12 3 3 3 8 6 9 3 4 18 21 23 24 26 26 25 27 34 36 28 19 25 30 32 33 32 30 31 31 36 39 42 45 43 44 45
3 3 2 4 5 4 11 5 3 6 3 8 6 9 10 13 16 19 22 27 27 26 31 35 30 24 18 25 29 33 38 41 44 44 45 46 43 41 41 45 42 39 40 42
2 2 1 4 2 6 7 3 9 14 16 18 17 17 18 19 20 23 25 26 31 33 26 15 27 36 39 43 45 45 50 48 45 39 37 36 38 40 37 32 35 39 37 37
3 6 3 3 2 7 7 12 11 13 16 17 18 18 16 20 23 25 27 26 21 23 29 34 41 47 52 52 49 42 39 39 37 37 36 37 33 34 29 30 32 33 35 34
8 5 2 4 7 7 13 13 11 14 13 13 11 16 20 22 23 19 22 20 26 34 41 48 52 45 39 44 40 39 36 35 36 36 35 34 33 32 32 32 31 34 37 36
2 3 1 1 4 1 5 10 12 12 15 17 19 21 18 18 21 20 24 29 37 47 50 41 35 37 41 40 38 36 33 32 34 35 32 30 30 31 35 34 33 31 34 35
Wind_Direction
209 179 226 237 241 245 255 261 222 237 242 222 221 200 205 219 235 162 165 177 202 232 250 227 231 235 220 211 221 217 215 209 222 231 239 237 231 236 230 228 229 236 242 247
256 229 239 224 233 237 251 262 277 283 313 333 288 205 195 204 221 209 193 202 214 216 233 224 197 202 212 215 231 241 252 259 242 231 240 243 244 248 246 242 246 239 237 245
212 237 232 249 250 249 242 241 294 312 314 318 337 284 221 236 235 264 239 223 220 207 214 223 217 198 215 214 197 201 250 265 269 254 243 247 253 257 257 253 257 251 245 241
243 251 256 249 240 265 295 306 279 294 302 266 2 271 268 226 242 242 248 233 205 201 208 219 220 216 197 176 173 183 187 213 260 268 270 253 253 259 258 259 261 261 257 253
264 281 289 301 247 234 249 287 267 248 245 264 298 354 266 297 262 241 236 228 213 200 200 190 191 192 156 140 134 147 150 150 183 225 260 262 264 262 270 264 263 259 258 263
270 294 300 284 322 291 289 265 297 292 206 325 233 236 278 260 261 277 221 220 213 198 195 177 156 142 133 141 140 138 142 145 263 297 308 298 295 293 281 268 263 259 257 256
294 286 288 298 313 329 356 103 330 325 323 221 246 255 241 277 255 265 258 211 168 147 130 127 122 118 125 143 155 184 213 239 262 284 294 297 293 286 283 283 279 275 270 264
228 292 302 333 240 213 271 162 168 226 231 261 339 260 239 288 341 74 68 96 105 104 106 104 104 103 108 110 121 252 275 284 290 294 303 298 290 293 296 287 284 278 278 277
218 236 296 302 292 312 313 290 228 35 315 10 271 311 326 24 4 52 90 110 105 106 102 99 100 99 92 64 340 290 280 275 279 284 272 268 280 293 295 288 283 283 280 275
1 335 270 43 16 312 292 294 318 352 326 287 229 262 209 34 33 35 66 62 97 105 104 92 77 58 23 346 333 329 254 246 236 223 266 280 269 269 278 289 293 290 291 288
211 149 286 359 191 259 322 316 286 181 149 184 303 250 142 83 62 35 64 30 37 33 36 47 34 6 336 315 335 58 330 284 270 273 291 297 290 294 278 283 292 298 299 301
47 60 265 271 305 304 274 267 240 179 289 253 191 240 109 99 71 37 20 12 11 351 339 341 328 292 267 276 283 287 303 327 320 297 290 295 296 303 304 291 288 299 300 296
341 323 346 317 280 282 63 32 45 41 217 228 244 242 93 65 47 31 6 312 314 299 328 317 290 230 255 270 280 283 285 279 272 292 289 284 281 279 292 301 298 299 300 297
7 312 212 223 283 305 292 279 281 119 272 349 260 284 246 238 183 243 274 286 279 277 299 283 295 267 276 281 284 282 268 265 276 270 278 285 282 283 288 288 289 287 295 298
26 255 270 286 295 289 282 280 267 208 218 225 248 258 282 285 202 202 232 251 259 262 244 262 288 292 291 286 277 273 260 266 268 277 283 285 292 290 285 284 287 285 289 293
358 293 325 294 280 276 275 265 260 257 242 236 242 249 242 238 47 98 170 216 237 293 278 279 285 289 308 287 320 293 279 276 278 274 273 279 285 287 290 293 292 289 289 289
171 239 359 265 317 344 302 250 251 259 247 253 256 289 16 77 74 20 349 340 306 296 16 18 326 318 321 318 314 307 302 289 272 268 275 277 278 279 279 284 285 284 288 287
168 167 154 275 286 251 270 349 34 91 44 11 51 52 47 24 20 353 17 31 18 2 350 338 326 314 307 302 299 298 297 295 291 287 283 281 279 281 277 279 282 278 277 285
195 180 205 252 259 293 306 357 45 39 59 29 65 71 62 23 354 250 26 1 345 335 328 323 318 312 308 306 303 301 295 289 286 285 277 272 273 271 274 274 282 282 284 281
172 164 172 224 274 278 122 348 343 28 142 18 12 354 19 23 341 288 334 338 332 325 319 313 307 307 307 305 302 300 291 285 285 283 281 275 269 268 271 275 278 275 287 284
154 184 211 220 234 280 360 44 325 227 203 307 298 5 11 5 310 328 329 328 325 321 315 309 310 310 307 303 293 295 290 284 283 281 277 275 273 269 273 275 277 274 275 284
192 183 212 197 212 222 1 34 28 309 269 299 329 7 356 339 333 331 327 324 319 318 317 316 309 299 290 300 303 297 293 294 293 292 288 284 282 280 278 276 270 266 274 278
264 199 251 196 288 217 297 296 350 8 8 358 0 0 352 341 334 329 324 318 315 315 317 309 309 307 305 302 305 304 301 300 298 295 291 287 284 284 272 266 269 271 269 265
249 184 200 224 315 295 89 45 19 4 346 347 346 344 349 346 334 324 316 318 327 316 311 308 308 307 306 304 304 301 298 296 295 292 290 292 287 284 276 271 273 263 262 259
273 206 284 271 37 61 26 5 348 324 328 348 349 352 342 330 321 331 330 321 314 312 310 309 310 309 304 308 305 302 298 296 294 291 289 288 284 282 281 273 265 268 266 259
46 5 208 221 81 137 306 326 336 11 21 5 355 343 341 342 336 325 319 315 315 314 313 314 309 303 304 304 304 303 301 296 287 288 288 287 285 274 272 276 280 273 267 264
Height
1452 1461 1466 1457 1451 1448 1445 1448 1450 1439 1430 1436 1438 1441 1441 1440 1440 1443 1444 1450 1454 1459 1462 1463 1466 1468 1467 1470 1472 1475 1480 1483 1487 1488 1488 1489 1490 1493 1496 1498 1500 1502 1500 1502
1454 1461 1447 1444 1442 1443 1441 1446 1448 1436 1427 1430 1432 1436 1432 1435 1438 1440 1441 1444 1447 1453 1457 1459 1461 1462 1464 1466 1469 1473 1476 1479 1482 1485 1487 1488 1488 1489 1490 1494 1495 1496 1494 1494
1453 1443 1439 1438 1438 1440 1440 1444 1442 1444 1432 1429 1435 1443 1437 1433 1433 1435 1437 1439 1441 1446 1450 1454 1457 1459 1462 1464 1466 1468 1471 1475 1478 1481 1483 1484 1486 1485 1485 1487 1486 1487 1489 1487
1442 1433 1434 1433 1436 1434 1446 1431 1431 1438 1446 1464 1434 1473 1441 1433 1433 1431 1431 1432 1436 1439 1444 1448 1452 1454 1458 1461 1463 1466 1468 1471 1474 1477 1480 1481 1482 1481 1481 1483 1483 1484 1483 1481
1442 1434 1435 1434 1430 1428 1438 1429 1434 1436 1445 1448 1447 1464 1451 1435 1436 1430 1425 1426 1428 1431 1437 1443 1448 1451 1455 1457 1461 1464 1467 1469 1472 1474 1476 1477 1478 1478 1477 1476 1476 1475 1475 1474
1436 1429 1431 1429 1425 1424 1426 1430 1435 1438 1447 1471 1449 1455 1453 1440 1430 1422 1415 1416 1419 1425 1432 1437 1443 1447 1451 1454 1457 1460 1462 1465 1469 1472 1473 1474 1473 1472 1471 1471 1470 1468 1465 1466
1437 1432 1428 1428 1431 1426 1432 1439 1474 1479 1477 1476 1443 1453 1445 1425 1419 1416 1408 1407 1414 1424 1431 1436 1440 1443 1448 1452 1455 1458 1461 1463 1466 1468 1469 1470 1470 1469 1468 1466 1463 1461 1459 1458
1449 1453 1430 1425 1430 1436 1436 1444 1472 1481 1481 1466 1442 1447 1437 1419 1416 1410 1412 1409 1416 1427 1432 1437 1442 1445 1449 1451 1454 1456 1458 1460 1461 1462 1464 1464 1465 1465 1463 1462 1460 1457 1453 1451
1447 1443 1427 1426 1426 1431 1438 1446 1437 1453 1451 1467 1457 1442 1427 1419 1416 1421 1419 1420 1425 1429 1434 1439 1442 1445 1448 1451 1453 1454 1456 1456 1457 1460 1461 1461 1460 1460 1458 1456 1455 1452 1450 1447
1437 1448 1431 1428 1430 1430 1435 1431 1449 1455 1472 1477 1456 1449 1444 1437 1435 1430 1428 1432 1433 1435 1438 1440 1442 1445 1448 1450 1451 1452 1451 1452 1453 1455 1456 1456 1455 1453 1452 1451 1449 1447 1444 1442
1435 1445 1444 1436 1439 1442 1441 1443 1442 1446 1459 1481 1477 1453 1432 1436 1436 1435 1439 1437 1439 1440 1442 1442 1443 1445 1446 1447 1448 1448 1449 1451 1451 1450 1450 1450 1450 1449 1447 1445 1443 1441 1438 1437
1443 1448 1453 1442 1434 1433 1436 1440 1443 1458 1463 1457 1461 1452 1433 1434 1434 1434 1433 1438 1439 1439 1440 1441 1441 1442 1443 1445 1446 1447 1447 1448 1448 1446 1445 1445 1446 1445 1443 1443 1438 1436 1434 1432
1449 1453 1464 1452 1441 1433 1444 1445 1452 1459 1458 1457 1463 1451 1431 1431 1432 1432 1434 1437 1439 1439 1441 1440 1439 1440 1441 1442 1443 1444 1443 1443 1443 1442 1441 1440 1440 1440 1438 1436 1433 1432 1430 1428
1450 1453 1457 1468 1453 1446 1449 1442 1447 1457 1467 1458 1454 1446 1438 1432 1431 1432 1432 1432 1433 1435 1438 1438 1438 1438 1438 1439 1438 1438 1437 1438 1438 1437 1436 1434 1433 1433 1432 1430 1428 1427 1425 1423
1455 1461 1455 1453 1449 1446 1442 1441 1440 1448 1450 1458 1444 1439 1434 1427 1429 1424 1423 1428 1429 1430 1432 1434 1435 1435 1434 1433 1432 1431 1431 1431 1431 1430 1429 1429 1427 1426 1425 1424 1422 1420 1418 1416
1458 1461 1457 1455 1448 1443 1437 1432 1432 1429 1427 1427 1427 1424 1420 1419 1420 1421 1423 1424 1426 1427 1427 1428 1429 1430 1430 1429 1428 1427 1426 1425 1424 1422 1420 1421 1420 1419 1418 1417 1415 1412 1410 1408
1460 1462 1463 1458 1444 1451 1443 1426 1421 1419 1417 1418 1424 1421 1416 1420 1419 1421 1423 1424 1424 1426 1426 1427 1427 1427 1425 1425 1424 1422 1420 1418 1416 1415 1413 1412 1411 1409 1408 1407 1405 1402 1400 1399
1458 1460 1466 1461 1454 1451 1421 1408 1410 1408 1422 1420 1420 1420 1423 1425 1423 1424 1426 1426 1425 1425 1425 1423 1423 1421 1420 1419 1417 1415 1415 1412 1409 1406 1403 1401 1399 1398 1397 1395 1395 1393 1390 1388
1449 1459 1461 1458 1448 1432 1417 1413 1418 1420 1430 1426 1426 1425 1425 1425 1425 1427 1426 1428 1427 1424 1423 1421 1419 1417 1415 1412 1411 1408 1405 1402 1398 1395 1392 1390 1388 1386 1386 1384 1384 1382 1380 1378
1445 1453 1462 1457 1448 1440 1429 1427 1422 1421 1431 1427 1427 1428 1427 1426 1431 1427 1425 1426 1424 1422 1420 1418 1415 1412 1409 1406 1403 1399 1394 1392 1389 1386 1383 1380 1378 1375 1372 1372 1372 1370 1369 1366
1447 1451 1452 1454 1452 1440 1429 1425 1426 1433 1439 1428 1427 1426 1426 1427 1428 1425 1422 1420 1419 1417 1414 1411 1408 1405 1402 1397 1392 1389 1386 1383 1379 1376 1372 1369 1367 1364 1362 1360 1359 1358 1358 1356
1444 1445 1445 1446 1446 1438 1432 1430 1435 1433 1428 1426 1425 1425 1424 1424 1423 1421 1419 1416 1414 1411 1407 1405 1399 1395 1392 1389 1385 1381 1376 1373 1368 1364 1360 1358 1355 1353 1350 1349 1347 1346 1346 1345
1443 1443 1444 1448 1439 1431 1431 1434 1435 1432 1429 1427 1426 1424 1423 1421 1419 1417 1414 1412 1409 1405 1401 1394 1391 1387 1385 1381 1377 1369 1364 1360 1354 1349 1345 1343 1340 1338 1337 1335 1335 1336 1335 1333
1436 1434 1440 1437 1431 1430 1432 1431 1431 1430 1429 1429 1425 1423 1421 1419 1416 1413 1410 1407 1403 1398 1393 1389 1385 1379 1373 1369 1364 1358 1351 1348 1344 1338 1335 1332 1330 1327 1326 1326 1325 1324 1323 1323
1435 1430 1430 1430 1430 1430 1433 1433 1432 1431 1429 1426 1423 1421 1418 1416 1413 1410 1406 1401 1396 1392 1387 1382 1375 1368 1361 1356 1351 1347 1342 1338 1333 1329 1326 1323 1320 1317 1315 1313 1313 1313 1312 1313
1429 1433 1435 1436 1432 1432 1432 1430 1429 1427 1425 1423 1420 1417 1416 1413 1409 1404 1400 1396 1391 1384 1378 1370 1366 1359 1352 1347 1341 1336 1332 1328 1324 1319 1316 1313 1309 1305 1304 1303 1302 1302 1301 1302